When you browse on this site, cookies collect data to enhance your experience and personalize the content and advertising you see.
Visit our Privacy Policy to learn more. By continuing to use the site, you agree to this use of cookies and data.
  • în România
  • Lista ţărilor
  • Pe 7 zile
  • Temperatura apei
  • Hartă satelitară
  • Meteo pe hartă
  • Widget-uri
  • user-avatar
    Intrare

    Meteo pe oră la Sanary-sur-Mer

    Astăzi, 20 Iunie, Joi

    Timp Temperatura Precipitaţii Vânt Presiune Umiditate
    00:00 +21°C° 0 mm 1 m/s 747 mmHg 48%
    01:00 +21°C° 0 mm 1 m/s 746 mmHg 48%
    02:00 +20°C° 0 mm 2 m/s 746 mmHg 48%
    03:00 +19°C° 0 mm 2 m/s 746 mmHg 48%
    04:00 +20°C° 0 mm 2 m/s 746 mmHg 46%
    05:00 +22°C° 0 mm 1 m/s 746 mmHg 44%
    06:00 +24°C° 0 mm 1 m/s 747 mmHg 43%
    07:00 +25°C° 0 mm 2 m/s 747 mmHg 39%
    08:00 +27°C° 0 mm 2 m/s 747 mmHg 36%
    09:00 +28°C° 0 mm 3 m/s 746 mmHg 33%
    10:00 +29°C° 0 mm 3 m/s 747 mmHg 32%
    11:00 +30°C° 0 mm 4 m/s 747 mmHg 32%
    12:00 +32°C° 0 mm 4 m/s 747 mmHg 32%
    13:00 +32°C° 0 mm 4 m/s 746 mmHg 34%
    14:00 +32°C° 0 mm 4 m/s 746 mmHg 36%
    15:00 +32°C° 0 mm 4 m/s 746 mmHg 38%
    16:00 +29°C° 0 mm 4 m/s 746 mmHg 45%
    17:00 +27°C° 0 mm 4 m/s 746 mmHg 51%
    18:00 +26°C° 0 mm 3 m/s 746 mmHg 58%
    19:00 +25°C° 0 mm 3 m/s 746 mmHg 59%
    20:00 +24°C° 0 mm 3 m/s 746 mmHg 60%
    21:00 +24°C° 0 mm 3 m/s 746 mmHg 62%
    22:00 +22°C° 0 mm 3 m/s 747 mmHg 64%
    23:00 +22°C° 0 mm 3 m/s 747 mmHg 66%

    Mâine, 21 Iunie, Vineri

    Timp Temperatura Precipitaţii Vânt Presiune Umiditate
    00:00 +23°C° 0 mm 2 m/s 747 mmHg 67%
    01:00 +22°C° 0 mm 3 m/s 747 mmHg 68%
    02:00 +21°C° 0 mm 3 m/s 747 mmHg 68%
    03:00 +21°C° 0 mm 3 m/s 746 mmHg 68%
    04:00 +22°C° 0 mm 3 m/s 746 mmHg 66%
    05:00 +22°C° 0 mm 3 m/s 746 mmHg 65%
    06:00 +24°C° 0 mm 3 m/s 747 mmHg 63%
    07:00 +25°C° 0 mm 4 m/s 747 mmHg 59%
    08:00 +27°C° 0 mm 4 m/s 747 mmHg 54%
    09:00 +28°C° 0 mm 4 m/s 747 mmHg 49%
    10:00 +29°C° 0 mm 4 m/s 747 mmHg 49%
    11:00 +29°C° 0 mm 5 m/s 747 mmHg 48%
    12:00 +30°C° 0 mm 5 m/s 747 mmHg 47%
    13:00 +29°C° 0 mm 4 m/s 747 mmHg 47%
    14:00 +29°C° 0 mm 4 m/s 747 mmHg 48%
    15:00 +29°C° 0 mm 4 m/s 746 mmHg 48%
    16:00 +28°C° 0 mm 3 m/s 746 mmHg 53%
    17:00 +26°C° 0 mm 2 m/s 746 mmHg 57%
    18:00 +25°C° 0 mm 1 m/s 747 mmHg 62%
    19:00 +24°C° 0 mm 1 m/s 747 mmHg 67%
    20:00 +23°C° 0 mm 1 m/s 747 mmHg 71%
    21:00 +22°C° 0 mm 1 m/s 747 mmHg 76%
    22:00 +22°C° 0 mm 1 m/s 747 mmHg 76%
    23:00 +22°C° 0 mm 1 m/s 747 mmHg 77%

    Poimâine, 22 Iunie, Sâmbătă

    Timp Temperatura Precipitaţii Vânt Presiune Umiditate
    00:00 +22°C° 0 mm 1 m/s 747 mmHg 77%
    01:00 +20°C° 0 mm 2 m/s 747 mmHg 78%
    02:00 +20°C° 0 mm 2 m/s 747 mmHg 79%
    03:00 +20°C° 0 mm 2 m/s 746 mmHg 81%
    04:00 +21°C° 0 mm 2 m/s 747 mmHg 77%
    05:00 +23°C° 0 mm 2 m/s 747 mmHg 72%
    06:00 +24°C° 0 mm 2 m/s 747 mmHg 68%
    07:00 +25°C° 0 mm 2 m/s 747 mmHg 63%
    08:00 +26°C° 0 mm 3 m/s 747 mmHg 57%
    09:00 +28°C° 0 mm 3 m/s 747 mmHg 52%
    10:00 +28°C° 0 mm 4 m/s 747 mmHg 49%
    11:00 +29°C° 0 mm 5 m/s 747 mmHg 47%
    12:00 +29°C° 0 mm 6 m/s 747 mmHg 44%
    13:00 +29°C° 0 mm 6 m/s 747 mmHg 43%
    14:00 +29°C° 0 mm 6 m/s 747 mmHg 42%
    15:00 +29°C° 0 mm 6 m/s 747 mmHg 41%
    16:00 +28°C° 0 mm 6 m/s 747 mmHg 43%
    17:00 +28°C° 0 mm 6 m/s 747 mmHg 45%
    18:00 +27°C° 0 mm 5 m/s 747 mmHg 47%
    19:00 +26°C° 0 mm 5 m/s 747 mmHg 51%
    20:00 +25°C° 0 mm 5 m/s 747 mmHg 55%
    21:00 +22°C° 0 mm 5 m/s 747 mmHg 59%
    22:00 +22°C° 0 mm 5 m/s 747 mmHg 62%
    23:00 +22°C° 0 mm 5 m/s 747 mmHg 64%

    23 Iunie, Duminică

    Timp Temperatura Precipitaţii Vânt Presiune Umiditate
    00:00 +21°C° 0 mm 5 m/s 747 mmHg 66%
    01:00 +21°C° 0 mm 4 m/s 747 mmHg 67%
    02:00 +21°C° 0 mm 4 m/s 747 mmHg 67%
    03:00 +21°C° 0 mm 4 m/s 747 mmHg 68%
    04:00 +22°C° 0 mm 3 m/s 747 mmHg 64%
    05:00 +22°C° 0 mm 3 m/s 747 mmHg 61%
    06:00 +24°C° 0 mm 2 m/s 747 mmHg 58%
    07:00 +26°C° 0 mm 2 m/s 747 mmHg 52%
    08:00 +28°C° 0 mm 2 m/s 748 mmHg 46%
    09:00 +30°C° 0 mm 2 m/s 748 mmHg 40%
    10:00 +30°C° 0 mm 2 m/s 748 mmHg 38%
    11:00 +30°C° 0 mm 2 m/s 748 mmHg 37%
    12:00 +31°C° 0 mm 2 m/s 748 mmHg 36%
    13:00 +31°C° 0 mm 2 m/s 748 mmHg 35%
    14:00 +31°C° 0 mm 3 m/s 748 mmHg 33%
    15:00 +31°C° 0 mm 3 m/s 748 mmHg 32%
    16:00 +30°C° 0 mm 3 m/s 748 mmHg 38%
    17:00 +29°C° 0 mm 3 m/s 748 mmHg 44%
    18:00 +27°C° 0 mm 3 m/s 748 mmHg 50%
    19:00 +26°C° 0 mm 3 m/s 748 mmHg 53%
    20:00 +25°C° 0 mm 2 m/s 749 mmHg 56%
    21:00 +24°C° 0 mm 2 m/s 749 mmHg 59%
    22:00 +24°C° 0 mm 1 m/s 749 mmHg 61%
    23:00 +23°C° 0 mm 1 m/s 749 mmHg 62%

    24 Iunie, Luni

    Timp Temperatura Precipitaţii Vânt Presiune Umiditate
    00:00 +23°C° 0 mm 1 m/s 749 mmHg 64%
    01:00 +23°C° 0 mm 1 m/s 749 mmHg 65%
    02:00 +21°C° 0 mm 2 m/s 749 mmHg 67%
    03:00 +21°C° 0 mm 2 m/s 749 mmHg 69%
    04:00 +23°C° 0 mm 2 m/s 749 mmHg 66%
    05:00 +24°C° 0 mm 3 m/s 749 mmHg 62%
    06:00 +25°C° 0 mm 3 m/s 750 mmHg 59%
    07:00 +27°C° 0 mm 4 m/s 750 mmHg 51%
    08:00 +30°C° 0 mm 4 m/s 750 mmHg 44%
    09:00 +33°C° 0 mm 4 m/s 750 mmHg 37%
    10:00 +34°C° 0 mm 5 m/s 750 mmHg 34%
    11:00 +35°C° 0 mm 5 m/s 750 mmHg 31%
    12:00 +35°C° 0 mm 6 m/s 750 mmHg 28%
    13:00 +35°C° 0 mm 6 m/s 750 mmHg 29%
    14:00 +35°C° 0 mm 5 m/s 750 mmHg 29%
    15:00 +35°C° 0 mm 5 m/s 750 mmHg 29%
    16:00 +34°C° 0 mm 5 m/s 750 mmHg 32%
    17:00 +33°C° 0 mm 5 m/s 750 mmHg 34%
    18:00 +32°C° 0 mm 4 m/s 750 mmHg 36%
    19:00 +30°C° 0 mm 4 m/s 750 mmHg 39%
    20:00 +28°C° 0 mm 4 m/s 750 mmHg 42%
    21:00 +27°C° 0 mm 4 m/s 750 mmHg 45%
    22:00 +26°C° 0 mm 4 m/s 750 mmHg 46%
    23:00 +26°C° 0 mm 3 m/s 750 mmHg 47%

    25 Iunie, Marţi

    Timp Temperatura Precipitaţii Vânt Presiune Umiditate
    00:00 +26°C° 0 mm 3 m/s 751 mmHg 47%
    01:00 +26°C° 0 mm 3 m/s 751 mmHg 48%
    02:00 +25°C° 0 mm 3 m/s 750 mmHg 48%
    03:00 +25°C° 0 mm 3 m/s 750 mmHg 49%
    04:00 +26°C° 0 mm 2 m/s 751 mmHg 48%
    05:00 +27°C° 0 mm 2 m/s 751 mmHg 48%
    06:00 +28°C° 0 mm 2 m/s 751 mmHg 47%
    07:00 +30°C° 0 mm 3 m/s 751 mmHg 43%
    08:00 +33°C° 0 mm 4 m/s 751 mmHg 40%
    09:00 +35°C° 0 mm 4 m/s 751 mmHg 36%
    10:00 +36°C° 0 mm 5 m/s 751 mmHg 35%
    11:00 +37°C° 0 mm 5 m/s 751 mmHg 34%
    12:00 +39°C° 0 mm 6 m/s 751 mmHg 32%
    13:00 +38°C° 0 mm 6 m/s 751 mmHg 33%
    14:00 +37°C° 0 mm 5 m/s 751 mmHg 34%
    15:00 +37°C° 0 mm 5 m/s 751 mmHg 35%
    16:00 +35°C° 0 mm 4 m/s 751 mmHg 38%
    17:00 +34°C° 0 mm 4 m/s 751 mmHg 41%
    18:00 +33°C° 0 mm 3 m/s 751 mmHg 44%
    19:00 +30°C° 0 mm 2 m/s 751 mmHg 49%
    20:00 +29°C° 0 mm 2 m/s 751 mmHg 53%
    21:00 +27°C° 0 mm 1 m/s 752 mmHg 57%
    22:00 +27°C° 0 mm 1 m/s 752 mmHg 58%
    23:00 +27°C° 0 mm 1 m/s 752 mmHg 58%
    Arată mai mult